• Join FlightAware (Why Join?)
  • Login
  • US Flag 
08:46PM EST


 

Airport Tracker/Info


-or-


 

Live Flight TrackerFlight Track Log ✈ RPA4293 ✈ 21-Aug-2014 ✈ KBUF - KORD

Flight Track Log - Related Links

Times and Time Zones

All times are in EDT time to prevent confusion due to time zone crossing. See the RPA4293 flight status page for this flight to view local times or setup timezone preferences in your user account.

Time Position Orientation Groundspeed Altitude Reporting Facility
EDT Latitude Longitude Course Direction KTS MPH feet Rate Location/Type
06:28AM 42.9167 -78.7500 270° West 156 180 1,600  Level Buffalo TRACON
06:29AM 42.9000 -78.7667 216° Southwest 151 174 2,500 1,563 Climbing Buffalo TRACON
06:30AM 42.8833 -78.8333 251° West 238 274 4,100 2,150 Climbing Buffalo TRACON
06:31AM 42.9500 -79.0603 270° West  Level FlightAware Approximate
06:31AM 42.8833 -78.9333 270° West 256 295 6,800  Level Buffalo TRACON
06:32AM 42.9591 -79.1750 277° West  Level FlightAware Approximate
06:32AM 42.9000 -79.0333 283° West 261 300 9,500  Level Buffalo TRACON
06:33AM 42.9667 -79.2899 270° West  Level FlightAware Approximate
06:33AM 42.9000 -79.1333 270° West 281 323 11,200  Level Buffalo TRACON
06:34AM 42.9167 -79.2500 281° West 312 359 13,600 2,000 Climbing Buffalo TRACON
06:35AM 42.9167 -79.4000 270° West 310 357 16,100 1,787 Climbing Toronto Center
06:36AM 42.9167 -79.5167 270° West 320 368 17,800 1,750 Climbing Toronto Center
06:37AM 42.9333 -79.6500 280° West 330 380 19,600 1,650 Climbing Toronto Center
06:38AM 42.9333 -79.7667 270° West 340 391 21,100 1,450 Climbing Toronto Center
06:39AM 42.9500 -79.9000 280° West 350 403 22,500 1,400 Climbing Toronto Center
06:40AM 42.9667 -80.0500 279° West 360 414 23,900 1,400 Climbing Toronto Center
06:41AM 42.9667 -80.1833 270° West 360 414 25,300 1,250 Climbing Toronto Center
06:42AM 42.9833 -80.3167 280° West 370 426 26,400 1,350 Climbing Toronto Center
06:43AM 42.9833 -80.4833 270° West 370 426 28,000 1,350 Climbing Toronto Center
06:44AM 43.0000 -80.6167 280° West 370 426 29,100 1,150 Climbing Toronto Center
06:45AM 43.0667 -80.7000 318° Northwest 370 426 30,300 1,150 Climbing Toronto Center
06:46AM 43.1333 -80.8167 308° West 380 437 31,400 1,150 Climbing Toronto Center
06:47AM 43.2000 -80.9167 312° West 380 437 32,600 1,100 Climbing Toronto Center
06:48AM 43.2667 -81.0333 308° West 370 426 33,600 700 Climbing Toronto Center
06:49AM 43.2667 -81.1667 270° West 380 437 34,000 200 Climbing Toronto Center
06:50AM 43.2500 -81.3333 262° West 390 449 34,000  Level Toronto Center
06:51AM 43.2333 -81.4667 260° West 380 437 34,000  Level Toronto Center
06:52AM 43.2167 -81.6000 260° West 380 437 34,000  Level Toronto Center
06:53AM 43.2000 -81.7333 260° West 380 437 34,000  Level Toronto Center
06:54AM 43.1833 -81.9000 262° West 390 449 34,000  Level Toronto Center
06:55AM 43.1667 -82.0333 260° West 390 449 34,000  Level Toronto Center
06:56AM 43.1500 -82.2000 262° West 380 437 34,000  Level Toronto Center
06:57AM 43.1333 -82.3333 260° West 380 437 34,000  Level Toronto Center
06:58AM 43.1167 -82.4833 261° West 390 449 34,000  Level Toronto Center
06:59AM 43.1000 -82.6167 260° West 390 449 34,000  Level Toronto Center
07:00AM 43.0908 -82.7633 265° West 386 444 34,000 -517 Level Cleveland Center
07:01AM 43.0731 -82.9117 261° West 392 451 33,000 -976 Descending Cleveland Center
07:02AM 43.0550 -83.0625 261° West 403 464 32,000 -488 Descending Cleveland Center
07:03AM 43.0358 -83.2133 260° West 404 465 32,000  Level Cleveland Center
07:04AM 43.0169 -83.3661 260° West 408 470 32,000  Level Cleveland Center
07:05AM 42.9961 -83.5175 259° West 408 470 32,000  Level Cleveland Center
07:06AM 42.9775 -83.6703 261° West 408 470 32,000  Level Cleveland Center
07:07AM 42.9553 -83.8517 261° West 408 470 32,000  Level Cleveland Center
07:08AM 42.9417 -84.0064 263° West 411 473 32,000  Level Cleveland Center
07:10AM 42.9267 -84.1606 262° West 412 474 32,000  Level Cleveland Center
07:11AM 42.9108 -84.3147 262° West 412 474 32,000  Level Cleveland Center
07:12AM 42.8944 -84.4739 262° West 413 475 32,000  Level Cleveland Center
07:13AM 42.8783 -84.6297 262° West 414 476 32,000  Level Cleveland Center
07:14AM 42.8622 -84.7864 262° West 415 478 32,000  Level Cleveland Center
07:15AM 42.8433 -84.9739 262° West 417 480 32,000  Level Chicago Center
07:16AM 42.8264 -85.1331 262° West 422 486 32,000  Level Chicago Center
07:17AM 42.8092 -85.2886 261° West 422 486 32,000 -49 Level Chicago Center
07:18AM 42.7922 -85.4450 262° West 420 483 31,900 -1,131 Descending Chicago Center
07:19AM 42.7675 -85.6006 258° West 418 481 29,700 -2,164 Descending Chicago Center
07:20AM 42.7397 -85.7556 256° West 419 482 27,500 -2,164 Descending Chicago Center
07:21AM 42.7133 -85.9047 257° West 409 471 25,300 -2,098 Descending Chicago Center
07:22AM 42.6861 -86.0517 256° West 403 464 23,200 -2,049 Descending Chicago Center
07:23AM 42.6592 -86.1950 256° West 395 455 21,100 -1,574 Descending Chicago Center
07:24AM 42.6344 -86.3300 256° West 375 432 20,000 -541 Descending Chicago Center
07:25AM 42.6092 -86.4669 256° West 372 428 20,000 -244 Level Chicago Center
07:26AM 42.5822 -86.6050 255° West 374 430 19,500 -1,610 Descending Chicago Center
07:27AM 42.5547 -86.7544 256° West 370 426 16,700 -2,902 Descending Chicago Center
07:28AM 42.5172 -86.8894 249° West 356 410 13,600 -2,683 Descending Chicago Center
07:29AM 42.4842 -87.0097 250° West 346 398 11,200 -1,756 Descending Chicago Center
07:30AM 42.4542 -87.1153 249° West 305 351 10,000 -738 Descending Chicago Center
07:31AM 42.4272 -87.2133 250° West 281 323 9,700 -878 Descending Chicago Center
07:32AM 42.4000 -87.3108 249° West 280 322 8,200 -1,561 Descending Chicago Center
07:33AM 42.3561 -87.3875 232° Southwest 272 313 6,500 -1,082 Descending Chicago Center
07:34AM 42.2822 -87.4547 214° Southwest 275 316 6,000 -530 Descending Chicago Center
07:36AM 42.1500 -87.4000 163° South 287 330 4,900 -667 Descending Chicago TRACON
07:37AM 42.0667 -87.3833 172° South 273 314 4,000 -474 Descending Chicago TRACON
07:38AM 42.0000 -87.3833 180° South 279 321 4,000  Level Chicago TRACON
07:39AM 41.9833 -87.4667 255° West 231 266 4,000  Level Chicago TRACON
07:40AM 41.9833 -87.5500 270° West 213 245 4,000  Level Chicago TRACON
07:41AM 41.9833 -87.6333 270° West 213 245 4,000 -400 Level Chicago TRACON
07:42AM 41.9833 -87.7000 270° West 189 217 3,200 -810 Descending Chicago TRACON
07:43AM 41.9833 -87.7833 270° West 171 197 2,300 -810 Descending Chicago TRACON
07:44AM 41.9833 -87.8333 270° West 135 155 1,500 -789 Descending Chicago TRACON
07:45AM 41.9833 -87.8833 270° West 138 159 800 -778 Descending Chicago TRACON